Wetbulb
51.23 47.67 45.67 47.54 48.42 48.04 46.68 45.82 45.04 47.18 48.94 47.95 47.69 48.05 49.84 51.97 52.46 52.39 53.35 53.92 54.62 55.35 57.30 58.67 59.48 60.43 61.07 63.91 66.18 69.65 70.77 71.26 76.58 75.47 74.52 74.67 73.88 75.17 75.76 76.12 76.99 76.54 76.07 75.37
48.81 45.11 48.84 49.56 48.79 47.13 46.64 44.99 44.85 47.33 49.03 48.53 47.95 47.79 50.46 51.93 52.36 53.15 53.45 53.86 54.48 55.24 56.08 57.51 58.74 60.22 61.25 64.28 67.18 67.66 68.30 72.30 74.49 75.47 75.56 75.27 75.00 76.01 76.02 76.35 76.46 77.00 76.84 76.32
46.40 48.22 48.84 47.34 46.71 45.30 45.73 44.67 45.21 45.30 47.87 49.17 47.85 46.66 49.52 52.47 53.35 53.56 53.96 54.91 55.33 55.54 55.72 56.81 57.68 59.45 60.25 61.06 65.86 66.37 69.84 70.59 72.30 76.25 75.97 76.24 76.20 75.58 74.26 74.49 75.31 75.28 75.51 75.71
47.70 49.82 46.79 46.30 45.58 46.84 43.98 48.13 47.13 45.64 45.11 42.17 49.35 40.71 47.87 50.49 51.13 52.31 53.27 54.20 54.79 55.42 56.38 56.82 57.52 58.66 60.40 61.17 62.58 65.78 67.74 69.98 70.45 72.44 74.20 74.46 72.89 72.33 73.79 74.12 74.46 75.48 75.85 75.16
46.46 46.96 46.89 45.64 46.74 48.14 45.92 49.09 47.24 47.17 45.49 45.39 45.61 43.59 46.95 50.38 48.82 50.08 51.61 52.62 53.92 55.00 55.77 56.87 57.76 58.97 60.02 61.25 61.98 65.11 67.73 68.32 70.20 71.96 73.93 73.45 73.81 73.49 73.57 74.53 74.75 75.45 75.50 75.25
48.40 50.85 48.86 48.34 49.13 48.83 49.61 47.58 47.43 47.48 46.00 40.10 44.97 44.55 44.78 47.45 47.59 49.14 51.51 52.80 53.73 55.22 56.49 57.33 58.41 59.31 59.60 60.91 61.12 62.31 65.56 67.37 69.36 69.85 71.05 73.38 72.95 73.46 72.68 73.65 73.00 73.72 74.08 74.89
46.47 47.11 49.84 50.34 47.17 50.06 48.55 46.21 39.98 38.99 38.71 38.00 45.65 42.29 44.29 47.88 49.18 49.78 50.29 52.20 53.94 55.30 55.84 56.50 56.77 57.26 58.01 59.49 60.38 61.26 61.99 63.89 66.14 68.29 69.90 72.01 73.13 74.17 73.09 72.94 72.17 72.70 73.36 73.49
40.29 39.95 47.43 49.18 47.43 46.07 46.58 45.72 40.49 33.14 35.64 39.45 45.49 39.13 44.63 48.49 50.37 51.51 51.78 52.76 53.98 54.26 54.78 55.18 56.25 57.22 58.01 59.36 60.24 61.00 61.19 62.45 64.26 65.80 68.78 71.66 72.85 73.01 73.39 73.09 72.11 72.95 71.98 73.64
40.02 39.77 47.76 48.31 48.97 48.02 44.84 42.36 47.11 41.37 42.04 37.50 40.30 43.86 47.38 49.67 49.21 49.86 50.47 50.80 51.55 53.06 54.10 54.90 55.32 56.63 57.69 58.31 59.73 60.18 61.01 61.33 63.63 64.14 67.40 71.38 71.99 71.63 71.75 73.53 72.45 73.12 73.16 70.73
45.08 39.12 47.21 48.09 48.60 48.78 46.08 47.39 40.55 42.10 31.47 31.64 38.00 39.16 40.70 45.46 46.32 48.09 48.55 49.71 50.96 52.12 53.20 54.63 55.49 56.31 57.39 58.07 58.57 59.80 60.88 61.29 62.17 63.81 64.52 66.94 69.84 71.16 72.20 73.02 69.64 69.66 71.02 72.90
46.08 43.11 43.56 45.74 43.29 42.63 43.74 42.83 42.86 42.73 40.52 33.07 32.37 37.87 46.44 45.97 47.47 47.70 49.26 50.82 51.52 52.48 52.89 53.89 54.93 56.00 56.63 57.37 57.59 58.27 59.22 60.29 60.84 62.28 63.71 65.51 67.07 68.99 69.40 67.32 65.44 68.21 71.01 71.87
47.38 43.75 39.18 41.02 47.37 47.00 45.67 43.24 43.76 37.97 36.88 39.28 38.32 37.87 48.78 47.83 48.65 49.39 49.18 50.59 52.05 52.68 53.18 54.02 54.23 55.29 55.50 55.92 56.29 56.72 57.75 58.50 59.90 60.94 61.78 63.68 64.80 66.29 67.58 66.68 63.31 66.98 68.09 69.27
46.34 42.05 36.08 38.25 42.88 46.20 42.49 43.34 43.83 43.94 42.97 37.19 34.68 37.68 48.47 48.73 48.59 49.45 49.57 50.84 51.63 52.92 53.10 53.17 54.08 54.22 54.39 54.79 55.07 55.34 56.42 56.94 57.86 59.23 59.69 59.60 62.83 64.10 65.60 65.43 67.10 66.43 66.73 66.64
47.44 44.01 40.26 35.88 38.45 43.43 40.69 42.23 43.55 43.26 37.47 38.58 39.33 41.32 45.12 46.69 47.36 48.74 49.92 51.46 51.48 52.02 52.28 53.04 53.17 53.35 53.51 54.12 54.14 54.39 55.00 55.98 56.75 57.19 58.37 58.98 59.36 62.59 64.26 65.19 64.85 64.76 64.89 64.48
44.92 39.71 41.74 42.50 43.67 43.12 42.35 41.65 42.17 41.13 42.02 38.39 40.88 41.08 44.24 46.56 47.67 49.24 50.69 51.03 50.82 50.91 51.10 51.51 51.70 52.29 52.98 53.46 54.20 54.39 54.89 55.29 55.82 55.69 56.11 57.35 59.33 59.53 61.36 63.42 64.39 64.43 64.48 63.97
44.78 39.15 40.97 38.54 42.22 42.30 40.26 41.89 42.19 42.31 42.58 42.23 42.39 41.87 47.51 49.27 50.38 49.47 49.89 49.69 49.10 49.35 49.78 50.48 51.31 51.30 51.68 52.07 52.48 53.65 53.51 53.86 55.38 54.73 54.74 56.33 56.61 58.58 58.76 59.66 61.90 64.02 63.72 63.34
41.74 40.31 38.28 34.14 40.19 41.04 36.70 40.59 41.87 42.37 43.88 43.71 40.56 44.79 48.46 47.80 48.22 48.34 48.34 48.42 47.86 48.10 48.78 48.79 48.58 49.05 50.22 50.61 51.26 50.08 51.00 52.09 52.11 52.33 54.43 54.88 55.86 55.54 57.50 57.99 58.85 61.49 65.03 66.73
40.96 39.94 38.88 36.35 38.03 29.72 41.34 46.61 45.50 43.81 44.41 46.00 46.15 47.06 48.13 48.04 48.74 49.06 49.66 48.60 47.62 47.51 47.11 46.89 46.83 46.94 47.45 48.10 48.22 48.05 47.81 48.13 48.89 47.79 50.47 52.91 54.72 55.11 55.67 55.34 55.12 60.03 63.22 64.74
44.98 40.39 35.48 33.25 33.38 38.38 40.97 43.58 43.89 42.03 42.12 47.03 46.55 46.99 47.47 48.10 47.87 46.57 48.77 48.25 46.60 46.38 45.71 45.51 45.30 45.21 44.54 44.58 45.19 46.30 44.65 46.23 44.17 45.81 47.67 49.66 51.93 53.51 55.11 54.71 53.51 58.35 58.88 62.85
43.44 44.11 38.57 35.65 31.33 29.35 41.36 45.05 47.63 46.73 38.33 47.30 46.49 45.84 45.78 46.06 39.99 42.96 46.69 46.63 46.40 46.21 45.05 44.05 44.43 44.18 43.49 43.92 44.61 44.00 43.79 43.67 43.72 43.23 44.80 47.68 49.00 50.27 49.36 55.44 55.70 54.55 58.05 57.83
38.84 38.84 34.42 34.31 33.68 37.74 45.13 46.88 47.76 36.63 39.50 47.28 47.14 46.63 45.93 43.55 44.99 46.39 47.13 46.28 46.33 44.40 43.62 43.63 43.13 42.15 42.36 42.75 42.25 41.15 41.57 41.06 43.58 44.92 46.18 46.53 47.31 49.31 49.40 49.21 56.40 56.87 54.40 55.85
37.71 35.82 35.34 36.76 33.31 31.70 47.09 46.58 40.33 45.97 48.40 47.59 47.62 47.16 45.81 45.60 45.68 44.74 46.38 44.75 44.46 41.96 41.84 41.80 40.49 40.38 41.00 41.56 40.33 38.99 39.17 41.35 42.46 43.19 43.11 44.07 46.14 45.81 46.75 48.75 49.60 55.78 56.54 52.71
37.69 41.37 39.44 40.18 40.75 47.06 49.35 47.97 49.97 49.31 47.60 47.44 47.08 47.43 46.50 45.02 44.97 45.48 45.07 43.70 41.47 40.50 39.82 39.97 38.44 38.44 39.66 40.62 40.95 39.47 40.36 41.33 41.32 41.59 41.17 42.04 43.17 45.06 44.51 44.80 48.12 51.15 56.23 55.23
43.18 47.03 43.04 42.73 45.05 45.22 46.86 49.13 49.23 49.96 47.96 48.10 48.01 47.59 46.98 45.10 45.43 45.22 44.65 40.86 39.58 39.24 37.69 38.10 38.01 37.61 37.76 39.71 40.36 40.67 41.42 41.97 42.03 41.26 40.53 41.03 41.05 42.29 44.12 44.75 46.57 50.53 53.23 55.45
43.23 45.26 42.94 43.27 45.20 46.44 47.49 47.73 48.66 48.61 48.63 47.51 48.17 47.33 46.25 45.17 45.09 43.92 40.90 39.86 38.93 37.69 37.14 37.77 37.57 37.55 38.06 39.78 40.78 43.67 44.41 43.85 41.60 41.62 41.14 41.76 41.35 41.54 42.00 43.51 45.26 46.05 52.81 54.37
44.69 43.00 41.29 40.62 46.05 45.81 46.80 48.55 49.10 47.37 46.28 47.57 46.78 46.16 46.53 45.57 44.92 43.53 40.20 39.53 38.14 36.34 37.10 36.96 37.17 36.91 38.42 39.97 41.45 44.79 45.75 44.49 42.73 42.01 40.93 40.37 41.28 41.27 41.81 42.64 43.76 42.33 41.92 41.12
MSLP
1004.18 1003.25 1002.06 1001.37 1001.37 1001.16 1001.07 1000.82 1000.41 1000.36 1000.90 1001.64 1001.58 1001.33 1000.99 1000.97 1000.83 1000.66 1000.58 1000.60 1000.63 1000.69 1000.88 1001.14 1001.51 1001.96 1002.31 1002.44 1002.93 1003.30 1003.45 1003.54 1003.04 1003.40 1003.80 1004.56 1004.48 1004.63 1004.82 1005.10 1005.13 1005.43 1006.16 1006.84
1003.30 1002.57 1001.81 1001.64 1001.93 1002.32 1002.37 1001.89 1001.46 1001.37 1001.54 1001.94 1001.75 1001.28 1001.04 1000.80 1000.44 1000.33 1000.38 1000.48 1000.57 1000.56 1000.62 1000.69 1000.95 1001.22 1001.54 1001.94 1002.22 1002.68 1003.06 1003.16 1003.05 1002.88 1002.93 1003.22 1003.64 1003.25 1003.67 1004.21 1004.55 1004.71 1005.24 1005.89
1002.47 1001.54 1002.27 1002.45 1002.55 1002.73 1002.47 1002.11 1001.61 1001.58 1001.74 1002.03 1001.74 1000.69 1000.01 999.59 999.41 999.56 1000.00 1000.49 1000.65 1000.76 1000.97 1001.07 1001.13 1001.25 1001.40 1001.57 1002.12 1002.24 1002.41 1002.65 1002.88 1002.62 1002.66 1002.94 1002.97 1003.01 1002.95 1003.36 1003.57 1004.34 1004.68 1005.25
1002.48 1001.98 1002.65 1002.65 1002.34 1002.48 1001.94 1001.75 1002.04 1002.28 1002.35 1001.22 1000.83 999.75 999.46 999.14 998.94 999.29 999.65 1000.02 1000.30 1000.68 1000.93 1001.16 1001.16 1001.19 1001.44 1001.88 1002.02 1002.18 1002.23 1002.37 1002.31 1002.50 1001.92 1001.85 1001.78 1001.79 1001.80 1002.21 1002.70 1003.32 1004.13 1004.59
1001.79 1002.06 1002.06 1002.34 1001.94 1002.09 1002.22 1002.31 1002.80 1002.79 1002.28 1001.66 1000.76 999.63 998.61 998.54 998.60 999.13 1000.04 1000.79 1001.31 1001.39 1001.50 1001.72 1001.97 1002.20 1002.31 1002.53 1002.48 1002.50 1002.29 1002.02 1001.84 1001.94 1001.66 1001.27 1001.57 1001.49 1001.35 1001.37 1001.99 1002.41 1002.90 1003.79
1002.24 1002.27 1002.51 1002.24 1002.33 1002.89 1003.23 1003.22 1002.97 1002.56 1001.87 1000.66 999.68 998.98 998.19 998.35 999.42 1000.44 1001.45 1001.97 1002.35 1002.49 1002.60 1002.57 1002.56 1002.45 1002.67 1002.74 1002.66 1002.71 1002.41 1001.89 1001.39 1001.20 1001.18 1001.02 1000.67 1001.04 1000.73 1000.85 1000.93 1001.26 1001.88 1002.74
1002.66 1002.20 1002.04 1002.39 1002.77 1002.63 1003.00 1003.11 1002.05 1001.25 1000.44 999.66 999.19 999.30 998.93 999.51 1000.67 1001.98 1002.70 1002.96 1002.96 1002.97 1002.97 1002.86 1002.67 1002.60 1002.83 1002.80 1002.72 1002.75 1002.10 1001.66 1001.14 1000.51 1000.39 1000.28 1000.53 1000.51 1000.56 1000.74 1000.98 1000.40 1000.48 1001.12
1003.28 1002.59 1002.31 1002.65 1003.23 1002.99 1002.58 1002.67 1002.48 1002.14 1001.48 1000.29 1000.00 999.60 999.23 1000.42 1001.36 1002.47 1002.90 1003.38 1003.41 1003.54 1003.47 1003.45 1003.26 1003.09 1002.86 1002.73 1002.66 1002.31 1001.89 1001.50 1001.10 1000.26 999.60 999.47 999.52 999.74 1000.06 1000.12 1000.37 999.65 998.60 999.40
1004.45 1004.23 1004.26 1004.35 1004.10 1004.18 1003.18 1003.43 1003.78 1003.88 1003.80 1002.94 1001.65 1000.14 999.58 1000.22 1001.26 1002.42 1002.68 1002.82 1003.30 1003.44 1003.47 1003.27 1003.15 1003.03 1002.86 1002.98 1002.56 1002.15 1001.67 1001.24 1000.83 1000.21 999.36 998.75 999.07 999.52 999.61 999.49 999.19 998.55 997.77 999.03
1005.72 1005.38 1004.45 1004.19 1004.98 1004.61 1004.77 1004.28 1004.55 1004.45 1004.48 1003.13 1001.18 1000.42 999.94 1000.55 1001.43 1001.92 1001.96 1002.52 1002.72 1002.64 1002.71 1002.85 1002.97 1002.84 1002.80 1002.77 1002.33 1002.02 1001.67 1001.06 1000.36 1000.00 999.31 998.45 998.34 998.70 998.91 998.41 998.25 997.21 993.38 996.35
1007.13 1006.92 1005.15 1004.99 1004.71 1004.30 1004.67 1004.68 1005.03 1005.27 1005.39 1004.82 1003.32 1001.39 1001.05 1001.65 1002.16 1002.19 1002.22 1002.20 1002.14 1002.22 1002.23 1002.45 1002.49 1002.36 1002.35 1002.16 1001.74 1001.70 1001.35 1001.20 1000.34 999.89 999.33 998.64 998.05 997.89 998.01 998.39 998.82 997.97 993.40 995.69
1007.01 1007.15 1005.86 1005.28 1004.74 1004.59 1004.53 1004.51 1004.48 1004.87 1005.07 1004.50 1003.81 1002.48 1001.94 1002.31 1002.07 1002.12 1001.67 1001.64 1001.83 1002.08 1002.27 1002.34 1002.21 1002.16 1002.03 1001.73 1001.58 1001.59 1001.53 1001.00 1000.59 1000.01 999.72 998.91 998.69 998.06 997.68 998.49 998.95 998.97 996.89 998.15
1007.99 1007.35 1006.47 1005.69 1005.25 1004.87 1005.00 1004.74 1004.79 1004.79 1005.05 1004.71 1003.97 1002.55 1001.68 1001.30 1001.12 1001.17 1001.21 1001.28 1001.79 1002.14 1002.04 1002.12 1002.03 1001.75 1001.64 1001.61 1001.55 1001.56 1001.37 1000.98 1000.62 1000.35 1000.00 999.67 999.24 998.84 998.24 998.16 998.52 998.14 998.15 998.67
1009.15 1007.94 1007.08 1005.89 1005.47 1005.38 1004.67 1004.45 1004.25 1004.09 1004.07 1003.68 1002.53 1001.47 1000.77 1000.62 1000.67 1000.90 1001.06 1001.48 1001.80 1001.74 1001.73 1001.83 1001.78 1001.61 1001.60 1001.59 1001.57 1001.47 1001.36 1001.12 1000.71 1000.33 1000.14 999.90 999.60 998.93 998.57 998.24 998.56 998.40 998.37 998.33
1009.51 1008.64 1007.70 1006.78 1005.91 1005.11 1004.22 1003.61 1003.48 1003.37 1003.11 1002.65 1001.87 1001.15 1000.85 1000.73 1000.72 1000.89 1001.20 1001.48 1001.71 1001.84 1001.97 1002.11 1002.12 1001.94 1001.62 1001.34 1001.23 1001.17 1001.03 1000.94 1000.81 1000.40 1000.17 1000.08 999.70 999.50 998.97 998.06 997.73 997.57 997.75 997.36
1009.85 1009.17 1008.48 1007.63 1006.32 1005.10 1003.83 1003.43 1003.25 1002.89 1002.58 1002.23 1001.83 1001.13 1000.88 1000.75 1001.40 1001.31 1001.89 1002.31 1002.43 1002.59 1002.70 1002.73 1002.59 1002.37 1002.16 1002.08 1001.96 1001.69 1001.42 1001.21 1000.74 1000.33 999.99 999.76 999.68 999.39 999.12 998.77 998.31 997.98 998.00 997.88
1010.26 1009.64 1008.81 1007.35 1006.42 1004.55 1003.32 1002.93 1002.42 1002.03 1001.96 1001.78 1001.27 1001.02 1001.35 1001.34 1001.88 1002.55 1002.96 1003.20 1003.20 1003.18 1003.13 1003.48 1003.88 1004.04 1003.93 1003.67 1003.47 1002.99 1002.55 1002.16 1001.47 1000.77 999.57 999.08 998.89 999.16 999.25 998.93 998.87 998.24 997.97 997.82
1010.69 1009.87 1009.27 1007.63 1006.35 1004.42 1002.79 1002.77 1003.07 1002.93 1002.86 1002.77 1002.40 1002.12 1002.28 1002.84 1003.28 1003.51 1003.72 1003.62 1003.90 1004.33 1004.58 1004.97 1005.16 1005.08 1004.87 1004.41 1003.89 1003.59 1002.98 1002.48 1001.48 1001.27 1000.35 999.08 998.08 997.64 998.62 998.98 999.12 998.82 998.24 998.41
1010.12 1009.91 1009.35 1007.63 1006.28 1004.55 1003.26 1003.86 1003.43 1003.59 1003.58 1003.51 1003.41 1003.92 1004.26 1004.30 1004.03 1003.54 1004.05 1004.90 1005.24 1005.48 1005.68 1005.57 1005.35 1005.02 1004.51 1004.06 1003.55 1002.91 1002.28 1001.58 1001.50 1000.73 999.88 999.32 998.39 997.58 996.89 997.95 998.72 999.22 998.47 998.67
1009.14 1008.92 1008.83 1007.85 1006.77 1004.89 1004.19 1004.61 1004.79 1004.67 1004.06 1004.93 1005.45 1005.28 1005.13 1005.04 1004.17 1003.68 1004.87 1005.30 1005.18 1005.73 1005.85 1005.48 1004.85 1004.25 1003.66 1003.10 1002.65 1001.88 1001.07 1000.60 999.98 999.91 999.56 998.91 998.52 997.69 997.63 997.09 997.57 998.34 998.30 998.70
1008.14 1008.24 1008.32 1007.76 1006.88 1005.44 1004.83 1004.92 1005.15 1004.98 1005.95 1005.99 1006.02 1005.84 1005.74 1005.77 1005.94 1005.45 1005.36 1004.96 1005.06 1005.53 1005.33 1004.95 1004.23 1003.37 1002.71 1002.30 1001.87 1000.90 1000.10 999.36 998.94 998.66 998.29 998.15 998.21 997.24 997.09 997.20 997.01 997.10 998.15 998.07
1007.80 1007.86 1007.54 1007.21 1006.74 1005.80 1005.35 1005.20 1005.55 1006.03 1006.31 1006.44 1006.25 1006.33 1006.30 1006.57 1006.21 1005.84 1005.00 1004.97 1005.08 1005.23 1004.77 1004.41 1003.48 1002.59 1001.92 1001.43 1000.81 999.92 999.07 998.47 998.08 997.69 997.53 997.38 997.23 997.27 997.18 996.66 996.58 996.44 996.30 996.85
1007.70 1007.49 1006.84 1006.31 1005.70 1005.88 1005.74 1005.92 1006.09 1006.72 1006.69 1006.76 1006.81 1006.76 1006.89 1006.46 1005.83 1005.23 1004.99 1005.10 1005.54 1005.23 1004.51 1003.84 1003.02 1001.74 1000.84 1000.11 999.65 998.69 997.77 997.36 996.83 996.51 996.40 996.28 996.35 996.40 996.58 996.87 995.81 995.48 995.22 995.34
1006.59 1005.98 1006.24 1005.77 1005.05 1005.41 1005.59 1005.82 1006.49 1006.58 1006.99 1007.09 1007.09 1006.91 1006.73 1006.29 1005.81 1005.29 1005.22 1005.74 1005.36 1004.90 1004.22 1003.35 1002.26 1001.23 1000.06 999.40 998.49 997.67 996.74 995.96 995.49 995.08 994.97 995.10 995.28 995.35 995.56 995.88 995.78 995.07 994.34 994.84
1005.68 1005.91 1005.70 1005.51 1005.27 1005.66 1005.41 1006.19 1006.53 1006.86 1007.06 1007.11 1007.07 1007.00 1006.76 1006.44 1005.99 1005.86 1006.02 1005.79 1005.45 1004.72 1003.83 1002.90 1001.91 1000.74 999.67 998.60 997.55 996.42 995.48 994.75 994.43 994.03 993.75 993.56 993.87 994.37 994.73 995.07 995.27 995.16 994.39 994.77
1005.41 1005.11 1005.68 1005.81 1006.39 1006.25 1005.82 1006.25 1006.74 1006.91 1007.06 1007.07 1006.97 1006.73 1006.69 1006.58 1006.11 1006.23 1006.50 1006.10 1005.53 1004.54 1003.50 1002.40 1001.54 1000.53 999.26 998.05 996.82 995.23 994.39 993.90 993.47 992.82 992.53 992.37 992.78 993.49 994.06 994.45 994.79 995.23 995.63 995.62
Wind_Speed
13 11 13 15 13 15 10 14 11 8 3 9 14 16 16 14 15 16 16 14 14 13 12 12 12 11 14 10 8 7 8 11 10 12 13 13 13 13 13 11 14 16 16 17
9 13 14 7 6 7 11 13 14 12 10 10 14 17 16 17 19 18 17 15 16 15 15 14 13 13 13 11 10 9 9 10 12 10 9 10 12 11 11 12 14 15 15 15
14 3 5 6 10 12 14 14 13 12 10 12 18 21 22 16 12 10 10 14 13 14 15 16 16 15 13 11 12 12 10 9 12 15 12 11 11 10 9 10 11 13 15 15
12 14 8 9 10 11 13 7 9 8 13 14 14 15 17 17 15 13 13 10 9 11 13 14 14 13 13 15 14 14 12 13 11 14 15 17 14 14 14 13 13 13 15 14
14 9 10 12 11 5 10 13 8 14 16 18 19 14 14 15 13 5 11 13 15 16 13 15 14 14 13 14 13 12 13 13 13 12 16 15 16 15 12 11 15 16 16 17
19 2 6 10 7 6 10 13 16 18 16 16 20 18 10 4 12 11 12 15 10 14 12 12 11 8 10 13 13 14 14 14 14 13 15 18 20 17 14 15 14 13 12 14
18 20 18 14 11 13 11 12 12 14 13 14 3 8 9 15 8 6 8 11 11 11 12 13 12 14 11 14 13 13 15 17 16 15 15 18 20 19 18 14 13 14 13 12
11 11 8 3 7 13 16 11 9 13 13 16 20 9 2 6 3 5 5 4 11 11 11 13 13 13 15 15 15 16 14 15 18 17 15 16 19 14 14 15 13 15 9 14
4 10 1 5 6 7 7 8 5 10 12 14 14 16 12 9 6 5 6 6 7 12 12 14 15 14 12 14 15 14 16 17 15 17 16 14 14 17 16 18 19 12 16 13
6 12 15 8 6 10 9 12 7 6 5 8 7 11 7 7 5 10 9 7 11 10 13 11 13 13 13 13 14 14 13 13 16 14 16 15 13 15 17 18 19 22 20 11
10 12 14 7 10 14 8 11 9 8 7 6 8 6 9 11 12 12 13 13 16 15 13 13 13 14 14 16 13 13 14 14 13 15 14 14 14 12 13 10 15 15 6 8
9 7 13 14 14 6 9 14 11 10 10 10 13 13 12 1 10 12 13 13 15 13 14 14 15 15 16 15 14 13 15 12 13 11 12 13 13 12 12 7 14 23 9 12
3 8 11 10 16 12 11 14 12 11 11 15 14 12 14 14 15 14 15 14 14 14 15 15 17 16 15 15 15 15 15 14 14 8 13 8 11 12 13 9 10 12 11 12
5 11 13 9 2 6 10 10 14 14 11 15 17 21 17 16 16 17 16 15 17 18 18 17 17 18 19 18 16 16 16 17 15 14 9 12 10 11 10 9 10 12 12 13
5 14 16 15 19 18 18 16 15 19 18 19 19 22 21 19 18 15 14 16 20 22 21 21 21 20 22 20 18 17 17 16 17 16 15 12 12 9 13 12 12 11 9 10
7 11 13 15 18 20 18 18 19 21 20 21 22 23 20 11 16 17 20 21 22 24 26 26 25 23 22 21 21 20 20 22 21 19 19 17 13 16 10 10 11 13 14 12
8 7 7 14 16 17 12 17 17 20 18 15 15 16 17 16 18 19 22 24 25 25 23 23 24 22 22 22 22 22 22 20 21 23 23 20 19 14 16 9 12 14 14 11
10 8 7 8 11 14 15 6 6 9 9 12 14 13 16 17 22 24 23 22 23 25 27 26 21 23 24 23 21 23 18 24 19 18 23 23 22 19 15 10 12 11 10 12
19 11 6 7 11 13 12 3 1 6 12 13 11 15 19 22 24 22 17 19 24 22 20 22 21 21 22 22 20 20 21 19 19 22 21 17 21 20 18 16 14 17 10 9
19 15 10 10 6 7 5 6 2 7 12 10 14 17 20 21 18 16 24 24 23 21 19 22 23 22 21 19 19 19 20 20 20 19 20 18 19 18 16 16 19 15 13 12
10 11 13 12 10 9 2 4 5 8 6 15 16 18 20 18 17 26 27 25 20 22 24 23 22 20 19 17 18 19 20 21 19 19 20 16 17 19 15 17 14 19 17 12
9 9 9 11 6 10 4 6 4 11 12 15 17 18 20 20 23 25 23 23 24 27 25 22 20 18 17 17 16 19 20 18 17 17 18 19 21 18 16 16 15 16 18 19
5 9 3 5 3 3 1 4 6 5 11 14 17 17 18 21 23 26 25 23 25 24 21 19 19 21 18 16 14 16 17 16 17 17 17 16 17 18 18 16 15 15 16 15
6 8 4 6 2 2 2 4 1 9 13 14 15 18 19 22 24 26 22 21 21 19 20 19 20 19 19 16 16 16 17 16 15 16 17 15 15 15 15 13 11 13 14 15
6 1 6 9 7 6 3 5 7 12 12 14 15 18 20 21 24 24 20 21 20 20 19 18 17 17 18 17 16 16 15 9 10 11 11 12 12 13 12 13 12 11 14 13
9 8 5 6 7 6 8 9 10 10 13 14 17 19 19 19 22 23 18 19 18 20 19 18 18 17 17 16 17 14 13 10 9 9 8 10 9 9 9 10 10 17 13 17
Wind_Direction
200 226 220 236 222 274 329 299 299 285 252 284 274 274 278 280 276 269 267 273 272 263 258 261 249 263 268 267 279 251 244 256 234 210 213 211 214 218 210 223 217 200 188 196
203 235 256 252 293 266 255 259 258 255 253 261 272 272 273 272 270 270 270 275 275 276 278 275 271 266 259 269 277 279 270 256 234 225 215 216 221 218 214 206 216 212 199 197
247 45 49 265 222 240 235 257 266 276 303 287 267 258 247 246 258 250 238 247 262 267 277 284 283 278 284 279 295 283 287 274 261 228 226 217 223 218 214 218 209 204 206 200
238 247 186 211 240 220 259 244 288 275 269 276 321 294 284 266 252 247 249 272 291 298 320 306 294 307 329 330 323 317 309 296 271 249 236 229 217 217 216 209 214 204 203 209
225 214 213 240 244 260 278 322 288 279 279 279 270 263 271 278 262 281 0 341 333 309 326 346 335 325 323 310 308 303 290 275 273 272 260 235 225 224 227 209 210 205 190 200
273 253 260 276 317 297 302 286 269 267 265 260 262 257 266 304 13 359 349 326 319 327 328 315 310 306 318 322 325 325 310 292 280 260 256 242 247 227 233 214 209 204 203 191
239 238 234 218 263 259 222 269 268 257 238 247 24 319 302 320 46 6 319 315 320 322 315 307 311 315 319 305 317 316 326 314 290 264 252 251 233 237 225 238 229 204 193 190
295 261 324 103 265 294 293 292 273 291 288 303 330 300 128 118 97 153 302 350 321 324 324 319 317 320 318 318 317 311 327 323 309 284 254 241 240 231 232 225 225 234 205 181
272 260 87 268 287 263 332 237 318 298 290 267 256 250 222 126 199 153 245 328 323 303 319 310 311 312 309 319 314 318 324 321 316 292 276 252 242 241 233 233 225 238 203 210
266 280 260 219 253 246 266 315 271 230 261 279 286 325 286 12 8 303 324 317 281 301 295 305 308 303 309 302 305 315 314 321 317 305 288 271 235 240 240 236 226 223 195 196
250 250 270 251 221 254 173 236 222 268 229 240 292 271 21 6 350 332 323 300 305 322 314 309 304 307 302 302 305 313 317 317 320 323 306 283 280 247 240 258 264 252 91 132
273 266 254 255 277 328 308 295 266 214 241 235 245 268 281 257 252 257 285 306 316 313 314 305 304 307 301 301 306 312 310 311 319 325 330 309 309 279 267 185 154 258 189 182
261 237 249 256 238 210 248 244 241 258 261 269 277 277 281 287 282 308 308 316 327 309 294 300 303 299 303 304 309 310 300 305 309 313 315 312 267 274 286 221 217 199 197 189
298 259 258 260 177 216 234 239 256 247 245 252 249 266 291 302 315 311 304 319 301 296 299 301 302 303 304 303 300 299 303 303 296 299 293 299 312 284 257 251 241 203 199 192
220 264 263 275 277 279 272 269 256 248 256 264 279 289 300 303 303 310 316 316 318 314 309 305 303 302 298 297 294 291 289 292 297 293 286 272 274 276 293 267 243 220 225 196
214 261 270 267 267 268 268 265 261 264 265 268 275 279 277 323 314 329 334 319 308 311 312 307 307 316 316 312 308 308 308 303 297 279 277 275 256 276 261 286 279 237 228 217
256 247 250 258 261 266 268 261 256 243 252 271 284 312 329 320 337 329 319 314 308 302 307 322 317 315 311 309 307 307 303 302 295 295 278 260 260 236 266 242 265 257 243 215
264 261 243 272 283 263 266 92 338 316 297 278 281 295 341 338 324 313 312 315 324 319 318 316 312 307 299 295 296 289 291 292 287 289 289 278 267 245 220 242 275 251 253 237
232 232 266 254 262 261 258 138 338 0 309 312 354 345 328 320 315 301 329 330 317 314 307 298 295 293 292 287 287 283 278 265 280 276 265 277 268 276 224 220 213 260 242 246
211 227 246 268 265 259 92 141 18 302 268 36 344 327 322 324 307 313 332 314 312 312 311 305 296 292 287 290 286 278 271 267 255 257 268 273 264 268 271 237 203 217 235 226
206 201 225 238 247 275 52 21 305 260 18 334 333 324 323 317 315 314 313 309 313 319 309 305 299 294 292 291 293 285 276 268 263 255 252 243 264 268 259 258 244 202 211 211
197 198 216 231 244 246 87 271 311 358 334 333 325 327 325 318 312 308 307 318 328 316 312 310 304 301 299 289 280 279 275 275 270 262 254 253 248 252 264 256 248 238 207 201
232 224 246 221 233 115 269 304 345 317 321 330 324 326 322 314 308 321 319 334 319 314 312 312 307 302 299 296 286 280 278 275 270 259 254 246 242 237 233 255 240 244 206 196
242 235 241 296 16 92 210 342 288 334 330 325 323 327 320 319 322 318 328 323 315 316 316 311 310 308 309 308 301 289 282 273 266 257 243 237 235 230 229 223 258 236 226 203
300 199 262 269 278 334 71 41 346 330 325 324 330 328 324 323 323 325 331 318 318 317 315 316 315 313 309 308 303 298 296 288 278 274 261 240 216 220 218 226 225 252 240 229
274 269 284 304 1 314 324 354 336 333 330 332 332 328 327 332 325 335 326 320 322 320 320 324 323 317 317 313 317 304 309 305 287 282 273 231 208 200 206 209 216 229 269 298